CZ-6A DEB, 56687

Orbit data source: Space-Track

CZ-6A DEB, 56687 is space debris in SSO originally from a launch on Fri, 11 Nov 2022 UTC launched from the Taiyaun Space Center, China (TSC). Debris objects in space refer to the collection of defunct objects orbiting the Earth. Examples of debris include non-operational satellites, rocket bodies, and fragments generated from explosions, collisions, or faulty payload assembly.

Loading next visibility...
Identifier
56687, 2022-151AHP
Orbit
SSO
Country
Flag of CNCN / PRC
Related business
Manufacturer
SAST
Mission
Spacecraft
Bus & Motor
Unknown
Mass
Unknown
Launch date (UTC)
2022-11-11 (4 years ago)
Launch vehicle
Unknown
Launch site
Taiyaun Space Center, China (TSC)
Object type
Payload
Rocket body
Debris
Shape & HBR
Unknown shape, 0.1 m
Radar Cross Section
Small (<0.1 m²)

Expand to show TLE details & history
Last TLE update: 11 hours ago

TLE from 11 hours ago
0 CZ-6A DEB
1 56687U 22151AHP 26236.38153401  .00000266  00000-0  21720-3 0  9996
2 56687  98.9353 206.0379 0122911 255.7061 103.0426 13.94665521167642
Epoch: 2026-08-24T09:09Z
TLE epoch observation values (Epoch: 2026-08-24T09:09:24.538Z)
Latitude
-0.00007°
Longitude
96.02162°
Altitude
936.466 km
Speed
7.373 km/s
True Right ascension
13h 44m 09s
True Declination
0° 00' 00"
Sunlit
Object was in daylight at epoch
Visualization orbit readout
Latitude
Unknown
Longitude
Unknown
Altitude
Unknown
Speed
Unknown
Apparent Right ascension
Unknown
Apparent Declination
Unknown
Sunlit
N/A
Visualization observer readout
Local Sidereal Time
10:52:33
Azimuth
Unknown
Elevation
Unknown
Doppler factor
Unknown
Orbital elements
Apogee altitude
999.103 km
Perigee altitude
819.956 km
Semi-major axis
7,287.666 km
Eccentricity
0.01229
Inclination
98.9353°
RAAN
206.0379°
Arg. of periapsis
255.7061°
True anomaly
104.40985°
Mean anomaly
103.0426°
Eccentric anomaly
103.72671°
Mean motion
3.48867 °/min
Orbital period
103.19 mins
BSTAR
0.0002172
Loading maneuver chart data...
Computing Atmospheric mass density...
Loading historical data...
Loading historical data...
Loading historical data...
Loading historical data...
Loading historical data...
Loading historical data...
Loading historical data...

Documentation

Showing up to 5 results
|